Location: Walton
(43.6794°N, 81.3017°W)
Time: 21:09:37
(UTC+00:00)

Cosmos 2151 - Pass Details

Date: 09 December 2025
Orbit: 559 x 576 km, 82.5° (Epoch: 21 January)

Event Time Altitude Azimuth Distance (km) Brightness Sun altitude
Rises 11:44:11 0° 180° (S) 2,732 6.7 -11.0°
Reaches altitude 10° 11:46:21 10° 177° (S) 1,843 5.8 -10.7°
Maximum altitude 11:50:22 65° 96° (E) 622 3.4 -10.0°
Drops below altitude 10° 11:54:26 10° 14° (NNE) 1,867 5.4 -9.3°
Sets 11:56:38 0° 12° (NNE) 2,772 6.3 -9.0°
